Location: Ash Swamp
(41.5170°N, 74.6157°W)
Time: 17:27:59
(UTC+00:00)

Cosmos 1340 - Pass Details

Date: 14 July 2020
Orbit: 502 x 504 km, 81.2° (Epoch: 04 August)

Event Time Altitude Azimuth Distance (km) Brightness Sun altitude
Exits shadow 03:22:08 52° 51° (NE) 635 3.1 -22.6°
Drops below altitude 10° 03:25:14 10° 17° (NNE) 1,720 6.0 -22.8°
Sets 03:27:23 0° 14° (NNE) 2,610 7.1 -23.0°
